WAT7021 RKSS-RKJJ

Flight info

Callsign WAT7021
Flight time 0h 40m
Altitude 20000
Route BULTI2Q BULTI Y711 MANGI XEMIX1
Aircraft DH8D/M-SDE2E3FGRY/H

Departure

Time 2026-04-21 05:58
Airport Gimpo International Airport (RKSS)

Arrival

Time 2026-04-21 06:38
Airport Gwangju Airport (RKJJ)
Time Latitude Longitude Altitude Speed Heading
2026-04-21 05:36 37.55717 126.79980 74 ft 0 kts 224°
2026-04-21 05:53 37.55714 126.79975 73 ft 2 kts 225°
2026-04-21 05:54 37.55693 126.79948 71 ft 5 kts 226°
2026-04-21 05:54 37.55664 126.79916 70 ft 5 kts 201°
2026-04-21 05:54 37.55619 126.79945 67 ft 11 kts 137°
2026-04-21 05:54 37.55552 126.80029 62 ft 15 kts 135°
2026-04-21 05:55 37.55477 126.80124 59 ft 14 kts 135°
2026-04-21 05:55 37.55403 126.80216 60 ft 15 kts 135°
2026-04-21 05:55 37.55319 126.80322 59 ft 17 kts 136°
2026-04-21 05:55 37.55232 126.80431 56 ft 17 kts 135°
2026-04-21 05:56 37.55144 126.80541 54 ft 18 kts 135°
2026-04-21 05:56 37.55050 126.80660 52 ft 18 kts 135°
2026-04-21 05:56 37.54966 126.80765 52 ft 15 kts 135°
2026-04-21 05:56 37.54890 126.80815 52 ft 9 kts 195°
2026-04-21 05:57 37.54848 126.80775 54 ft 6 kts 225°
2026-04-21 05:57 37.54814 126.80732 56 ft 8 kts 225°
2026-04-21 05:57 37.54823 126.80653 56 ft 13 kts 314°
2026-04-21 05:57 37.54944 126.80495 56 ft 38 kts 315°
2026-04-21 05:58 37.55351 126.79974 64 ft 123 kts 315°
2026-04-21 05:58 37.56092 126.79085 195 ft 163 kts 315°
2026-04-21 05:58 37.56967 126.78090 700 ft 178 kts 315°
2026-04-21 05:58 37.57832 126.76997 1429 ft 179 kts 309°
2026-04-21 05:59 37.58689 126.75818 2061 ft 184 kts 309°
2026-04-21 05:59 37.59569 126.74611 2663 ft 188 kts 309°
2026-04-21 05:59 37.60458 126.73395 3321 ft 190 kts 309°
2026-04-21 06:00 37.62239 126.70966 4660 ft 191 kts 307°
2026-04-21 06:00 37.62804 126.69501 5133 ft 192 kts 274°
2026-04-21 06:00 37.62421 126.67903 5030 ft 197 kts 233°
2026-04-21 06:00 37.61491 126.66585 4995 ft 205 kts 229°
2026-04-21 06:01 37.60504 126.65237 4982 ft 212 kts 229°
2026-04-21 06:01 37.59488 126.63861 4987 ft 218 kts 229°
2026-04-21 06:01 37.58448 126.62453 4989 ft 223 kts 229°
2026-04-21 06:01 37.57373 126.60995 4988 ft 227 kts 230°
2026-04-21 06:02 37.56179 126.59646 5032 ft 244 kts 211°
2026-04-21 06:02 37.54515 126.59252 5752 ft 245 kts 186°
2026-04-21 06:02 37.52817 126.59180 6342 ft 246 kts 186°
2026-04-21 06:02 37.51077 126.59099 6902 ft 250 kts 186°
2026-04-21 06:03 37.49350 126.59023 7475 ft 253 kts 186°
2026-04-21 06:03 37.47561 126.58943 7834 ft 265 kts 186°
2026-04-21 06:03 37.45665 126.58856 8134 ft 275 kts 186°
2026-04-21 06:03 37.43795 126.58780 8789 ft 274 kts 186°
2026-04-21 06:04 37.41840 126.58688 8949 ft 290 kts 186°
2026-04-21 06:04 37.39818 126.58600 8980 ft 292 kts 186°
2026-04-21 06:04 37.37768 126.58536 8985 ft 300 kts 183°
2026-04-21 06:04 37.35712 126.59100 9667 ft 296 kts 165°
2026-04-21 06:05 37.33767 126.59950 10132 ft 300 kts 165°
2026-04-21 06:05 37.31800 126.60802 10664 ft 301 kts 165°
2026-04-21 06:05 37.29792 126.61674 10906 ft 312 kts 165°
2026-04-21 06:05 37.27697 126.62588 10977 ft 328 kts 163°
2026-04-21 06:06 37.25622 126.63950 11124 ft 340 kts 150°
2026-04-21 06:06 37.23690 126.65575 11607 ft 338 kts 149°
2026-04-21 06:06 37.21750 126.67188 12267 ft 327 kts 149°
2026-04-21 06:06 37.19832 126.68779 12590 ft 331 kts 150°
2026-04-21 06:07 37.17929 126.70354 13026 ft 330 kts 150°
2026-04-21 06:07 37.16091 126.71873 13880 ft 315 kts 150°
2026-04-21 06:07 37.14233 126.73402 14340 ft 314 kts 151°
2026-04-21 06:07 37.12398 126.74906 14662 ft 320 kts 151°
2026-04-21 06:08 37.10536 126.76431 15066 ft 323 kts 152°
2026-04-21 06:08 37.08650 126.77974 15463 ft 324 kts 152°
2026-04-21 06:08 37.06746 126.79530 15798 ft 327 kts 152°
2026-04-21 06:08 37.04783 126.80991 16026 ft 329 kts 163°
2026-04-21 06:09 37.02763 126.81515 16133 ft 321 kts 185°
2026-04-21 06:09 37.00801 126.81593 16128 ft 328 kts 187°
2026-04-21 06:09 36.98494 126.81655 16123 ft 337 kts 188°
2026-04-21 06:09 36.96120 126.81718 16119 ft 344 kts 188°
2026-04-21 06:10 36.93691 126.81786 16115 ft 350 kts 188°
2026-04-21 06:10 36.91246 126.81859 16110 ft 354 kts 187°
2026-04-21 06:10 36.88779 126.81936 16105 ft 357 kts 187°
2026-04-21 06:10 36.86263 126.82015 16103 ft 359 kts 187°
2026-04-21 06:11 36.83970 126.82089 16102 ft 360 kts 187°
2026-04-21 06:11 36.81459 126.82169 16097 ft 361 kts 187°
2026-04-21 06:11 36.78942 126.82250 16095 ft 362 kts 187°
2026-04-21 06:11 36.76398 126.82333 16095 ft 363 kts 187°
2026-04-21 06:12 36.73874 126.82413 16095 ft 363 kts 187°
2026-04-21 06:12 36.71358 126.82496 16095 ft 363 kts 187°
2026-04-21 06:12 36.68825 126.82591 16107 ft 364 kts 187°
2026-04-21 06:12 36.66289 126.82696 16374 ft 358 kts 187°
2026-04-21 06:13 36.63848 126.82801 16775 ft 349 kts 187°
2026-04-21 06:13 36.61409 126.82899 16895 ft 350 kts 187°
2026-04-21 06:13 36.58978 126.82993 17050 ft 352 kts 187°
2026-04-21 06:13 36.56539 126.83085 17288 ft 350 kts 187°
2026-04-21 06:14 36.54139 126.83183 17838 ft 335 kts 188°
2026-04-21 06:14 36.51833 126.83276 18116 ft 334 kts 188°
2026-04-21 06:14 36.49514 126.83358 18474 ft 331 kts 189°
2026-04-21 06:14 36.47208 126.83436 18755 ft 330 kts 189°
2026-04-21 06:15 36.44926 126.83518 18938 ft 333 kts 189°
2026-04-21 06:15 36.42589 126.83607 19174 ft 334 kts 189°
2026-04-21 06:15 36.40261 126.83694 19428 ft 333 kts 189°
2026-04-21 06:15 36.37963 126.83697 19633 ft 329 kts 194°
2026-04-21 06:16 36.35675 126.83476 19841 ft 327 kts 197°
2026-04-21 06:16 36.33435 126.83227 20047 ft 328 kts 197°
2026-04-21 06:16 36.31135 126.82962 20112 ft 333 kts 197°
2026-04-21 06:16 36.28821 126.82697 20128 ft 338 kts 197°
2026-04-21 06:17 36.26446 126.82432 20133 ft 342 kts 197°
2026-04-21 06:17 36.24060 126.82166 20123 ft 345 kts 197°
2026-04-21 06:17 36.21648 126.81902 20122 ft 348 kts 197°
2026-04-21 06:17 36.19232 126.81638 20122 ft 349 kts 197°
2026-04-21 06:18 36.16803 126.81374 20124 ft 351 kts 197°
2026-04-21 06:18 36.14384 126.81110 20121 ft 352 kts 197°
2026-04-21 06:18 36.11950 126.80849 20122 ft 352 kts 196°
2026-04-21 06:18 36.09492 126.80585 20123 ft 353 kts 196°
2026-04-21 06:19 36.07029 126.80318 20122 ft 353 kts 196°
2026-04-21 06:19 36.04596 126.80052 20124 ft 353 kts 196°
2026-04-21 06:19 36.02165 126.79791 20126 ft 353 kts 196°
2026-04-21 06:19 35.99709 126.79527 20127 ft 353 kts 196°
2026-04-21 06:20 35.97247 126.79260 20131 ft 353 kts 196°
2026-04-21 06:20 35.94817 126.79000 20124 ft 353 kts 196°
2026-04-21 06:20 35.92345 126.78734 20122 ft 352 kts 196°
2026-04-21 06:20 35.89896 126.78468 20120 ft 352 kts 196°
2026-04-21 06:21 35.87456 126.78200 20119 ft 351 kts 196°
2026-04-21 06:21 35.85040 126.77937 20130 ft 351 kts 196°
2026-04-21 06:21 35.82658 126.77673 20135 ft 351 kts 196°
2026-04-21 06:21 35.80203 126.77408 20136 ft 351 kts 196°
2026-04-21 06:22 35.77768 126.77145 20139 ft 351 kts 196°
2026-04-21 06:22 35.75325 126.76882 20134 ft 351 kts 196°
2026-04-21 06:22 35.72893 126.76621 20132 ft 352 kts 195°
2026-04-21 06:22 35.70446 126.76363 20132 ft 351 kts 195°
2026-04-21 06:23 35.68031 126.76104 20132 ft 351 kts 196°
2026-04-21 06:23 35.65576 126.75841 20135 ft 351 kts 195°
2026-04-21 06:23 35.63138 126.75575 20138 ft 351 kts 196°
2026-04-21 06:23 35.60706 126.75312 20136 ft 351 kts 195°
2026-04-21 06:24 35.58268 126.75048 20139 ft 351 kts 196°
2026-04-21 06:24 35.55902 126.74789 20135 ft 351 kts 195°
2026-04-21 06:24 35.53473 126.74530 20132 ft 351 kts 195°
2026-04-21 06:24 35.51044 126.74271 20129 ft 351 kts 195°
2026-04-21 06:25 35.48605 126.74009 20127 ft 351 kts 195°
2026-04-21 06:25 35.46178 126.73754 20140 ft 349 kts 195°
2026-04-21 06:25 35.43803 126.73510 19849 ft 340 kts 195°
2026-04-21 06:25 35.41447 126.73269 19447 ft 335 kts 196°
2026-04-21 06:26 35.39146 126.73033 19043 ft 330 kts 196°
2026-04-21 06:26 35.36874 126.72792 18614 ft 326 kts 196°
2026-04-21 06:26 35.34630 126.72550 18178 ft 322 kts 196°
2026-04-21 06:26 35.32406 126.72312 17743 ft 319 kts 196°
2026-04-21 06:27 35.30201 126.72076 17305 ft 316 kts 196°
2026-04-21 06:27 35.28033 126.71842 16865 ft 313 kts 196°
2026-04-21 06:27 35.25880 126.71603 16368 ft 303 kts 198°
2026-04-21 06:27 35.23986 126.70833 15762 ft 277 kts 220°
2026-04-21 06:28 35.22386 126.69597 15169 ft 270 kts 223°
2026-04-21 06:28 35.20834 126.68343 14562 ft 268 kts 223°
2026-04-21 06:28 35.19295 126.67094 13953 ft 267 kts 223°
2026-04-21 06:28 35.17756 126.65847 13339 ft 265 kts 223°
2026-04-21 06:29 35.16230 126.64611 12727 ft 264 kts 222°
2026-04-21 06:29 35.14704 126.63380 12113 ft 264 kts 222°
2026-04-21 06:29 35.13162 126.62137 11489 ft 263 kts 221°
2026-04-21 06:29 35.11647 126.60918 10876 ft 263 kts 221°
2026-04-21 06:30 35.10123 126.59695 10258 ft 263 kts 220°
2026-04-21 06:30 35.08596 126.58467 9629 ft 263 kts 219°
2026-04-21 06:30 35.07056 126.57259 8998 ft 265 kts 215°
2026-04-21 06:30 35.05264 126.56668 8346 ft 277 kts 183°
2026-04-21 06:31 35.03415 126.57267 7749 ft 281 kts 159°
2026-04-21 06:31 35.01682 126.58363 7142 ft 281 kts 151°
2026-04-21 06:31 35.00033 126.59665 6523 ft 281 kts 145°
2026-04-21 06:31 34.98510 126.61124 5993 ft 277 kts 140°
2026-04-21 06:32 34.97138 126.62691 5543 ft 270 kts 134°
2026-04-21 06:32 34.95876 126.64336 5093 ft 263 kts 133°
2026-04-21 06:32 34.94602 126.65901 4644 ft 258 kts 135°
2026-04-21 06:32 34.93360 126.67445 4207 ft 252 kts 128°
2026-04-21 06:33 34.92775 126.69340 3967 ft 232 kts 88°
2026-04-21 06:33 34.93290 126.71055 3757 ft 210 kts 46°
2026-04-21 06:33 34.94513 126.71780 3494 ft 191 kts 359°
2026-04-21 06:33 34.95755 126.71465 3273 ft 175 kts 344°
2026-04-21 06:34 34.96923 126.71101 3141 ft 174 kts 345°
2026-04-21 06:34 34.98156 126.71055 3006 ft 183 kts 18°
2026-04-21 06:34 34.99239 126.71760 2854 ft 173 kts 31°
2026-04-21 06:34 35.00269 126.72456 2586 ft 164 kts 26°
2026-04-21 06:35 35.01257 126.73087 2323 ft 156 kts 28°
2026-04-21 06:35 35.02184 126.73727 2112 ft 152 kts 30°
2026-04-21 06:35 35.03106 126.74373 1926 ft 151 kts 29°
2026-04-21 06:35 35.04004 126.74998 1776 ft 149 kts 29°
2026-04-21 06:36 35.04900 126.75621 1547 ft 146 kts 28°
2026-04-21 06:36 35.05773 126.76231 1368 ft 136 kts 29°
2026-04-21 06:36 35.06576 126.76798 1171 ft 130 kts 28°
2026-04-21 06:36 35.07343 126.77333 981 ft 125 kts 28°
2026-04-21 06:37 35.08089 126.77859 831 ft 124 kts 27°
2026-04-21 06:37 35.08854 126.78394 670 ft 125 kts 27°
2026-04-21 06:37 35.09613 126.78921 511 ft 127 kts 27°
2026-04-21 06:37 35.10377 126.79452 340 ft 126 kts 26°
2026-04-21 06:38 35.11138 126.79977 146 ft 122 kts 26°
2026-04-21 06:38 35.11859 126.80479 53 ft 110 kts 27°
2026-04-21 06:38 35.12405 126.80853 57 ft 62 kts 29°
2026-04-21 06:38 35.12677 126.81051 58 ft 33 kts 30°
2026-04-21 06:39 35.12865 126.81179 59 ft 24 kts 31°
2026-04-21 06:39 35.12960 126.81212 61 ft 9 kts 333°
2026-04-21 06:39 35.13000 126.81149 62 ft 9 kts 300°
2026-04-21 06:39 35.13042 126.81060 61 ft 13 kts 300°
2026-04-21 06:40 35.13096 126.80961 61 ft 15 kts 303°
2026-04-21 06:40 35.13151 126.80845 62 ft 15 kts 283°
2026-04-21 06:40 35.13085 126.80753 63 ft 16 kts 212°
2026-04-21 06:40 35.12986 126.80675 66 ft 17 kts 214°
2026-04-21 06:41 35.12883 126.80597 68 ft 17 kts 211°
2026-04-21 06:41 35.12775 126.80518 71 ft 18 kts 212°
2026-04-21 06:41 35.12671 126.80436 75 ft 17 kts 211°
2026-04-21 06:41 35.12562 126.80355 74 ft 18 kts 211°
2026-04-21 06:42 35.12443 126.80267 75 ft 21 kts 212°
2026-04-21 06:42 35.12299 126.80155 65 ft 26 kts 214°
2026-04-21 06:42 35.12137 126.80032 62 ft 28 kts 212°
2026-04-21 06:42 35.11969 126.79905 62 ft 28 kts 211°
2026-04-21 06:43 35.11805 126.79778 62 ft 28 kts 213°
2026-04-21 06:43 35.11742 126.79647 61 ft 14 kts 290°
2026-04-21 06:43 35.11776 126.79583 62 ft 0 kts 303°